Torna al catalogo

NOAA 17 DEB

AttivoPO
NORAD 48722·DEBRIS·🇺🇸 United States

Lanciato Jun 24, 2002 da Vandenberg Space Force Base

Loading…

Prossimi Passaggi (prossime 24 ore)

TLE

AggiornatoSource: Space-Track

Epoca: Sep 13, 2026, 08:37 UTC

1 48722U 02032BF  26256.35946900  .00019339  00000-0  16533-2 0  9992
2 48722  98.6917 301.5195 0007736  21.3138 338.8402 14.97663703291130

Traccia NOAA 17 DEB in tempo reale con AllMySat

Download on the App Store